[[{"header":{"parameterUnit":"m.s-1","parameterCategory":1,"la1":30.2991,"la2":30.254,"lo1":-89.0895,"lo2":-89.0444,"dy":0.0017,"dx":0.0017,"nx":28,"ny":28,"refTime":"2024-04-11T09:00:00:Z","depth":0,"parameterNumber":2,"parameterNumberName":"U-component_of_WINDS"},"data":[0,0,0,0,0,0,0,0,0,0,0,0,0,0,0,0,0,0,0,0,0,0,0,0,0,0,0,0,0,0,0,0,0,0,0,0,0,0,0,0,0,0,0,0,0,0,0,0,0,0,0,0,0,0,0,0,0,0,1.919,1.9191,0,1.924,1.924,1.9241,1.9238,1.9237,1.9236,1.9236,1.929,1.9292,1.9294,0,0,0,0,0,0,0,0,0,0,0,0,0,1.9098,1.91,1.919,1.9191,1.9191,1.924,1.924,1.9241,1.9238,1.9237,1.9236,1.9235,1.9289,1.9292,1.9295,0,0,0,0,0,0,0,0,0,0,0,0,0,1.9142,1.91,1.919,1.9196,1.9197,1.924,1.924,1.9241,1.9238,1.9237,1.9236,1.9235,1.9289,1.9292,1.9295,1.9337,0,0,1.9305,1.9306,0,0,0,0,0,0,0,0,1.914,1.9145,1.9194,1.9195,1.9197,1.9231,1.9228,1.9273,1.9238,1.9223,1.9236,1.9234,1.9272,1.9276,1.9288,1.9339,1.9341,1.9305,1.9307,1.9308,1.9309,0,0,0,0,0,0,0,1.9136,1.9143,1.921,1.9195,1.9196,1.9197,1.9202,1.9236,1.9253,1.9224,1.9224,1.9229,1.9272,1.9285,1.9289,1.9342,1.9305,1.9308,1.931,1.9311,1.9433,1.9435,0,0,0,0,0,0,1.9132,1.9141,1.9208,1.9211,1.9165,1.92,1.9206,1.9221,1.9252,1.9256,1.923,1.9229,1.928,1.9286,1.9291,1.9344,1.9308,1.9311,1.9313,1.9432,1.9434,1.9435,0,0,0,0,0,0,1.913,1.9138,1.9206,1.9176,1.9185,1.9203,1.9221,1.9223,1.9236,1.9257,1.9261,1.924,1.9279,1.9287,1.9326,1.9346,1.9313,1.9316,1.943,1.9432,1.9434,1.9448,0,0,0,0,0,0,1.9127,1.9137,1.9152,1.9176,1.9186,1.9238,1.9222,1.9225,1.9241,1.924,1.9267,1.9271,1.9279,1.9321,1.9329,1.9349,1.9318,1.9429,1.9431,1.9434,1.9446,1.9451,1.9454,0,0,0,0,0,1.9124,1.9154,1.9152,1.916,1.9205,1.9239,1.9245,1.9253,1.9242,1.9258,1.9273,1.927,1.9342,1.9325,1.9334,1.9356,1.9427,1.9431,1.9433,1.9444,1.945,1.9454,0,0,0,0,0,0,1.9131,1.9157,1.9156,1.9194,1.9215,1.9239,1.9259,1.9258,1.9283,1.9281,1.9291,1.9297,1.9337,1.935,1.9331,1.9399,1.9384,1.9389,1.9389,1.9394,1.9398,1.9394,1.9321,0,0,0,0,0,1.9138,1.9162,1.9184,1.9216,1.9226,1.9241,1.9256,1.9261,1.9283,1.9291,1.9308,1.9331,1.9359,1.9377,1.9404,1.9448,1.9456,1.9468,1.9472,1.9475,1.948,1.9506,1.9513,1.9445,1.9445,1.9445,0,0,1.9151,1.9168,1.9183,1.9218,1.9234,1.9261,1.9248,1.9276,1.9297,1.9296,1.9334,1.9348,1.9374,1.9416,1.9436,1.9428,1.95,1.9479,1.9481,1.9484,1.951,1.9517,1.9522,1.9447,1.9447,1.9446,0,0,1.9188,1.9203,1.9232,1.9249,1.9274,1.9284,1.9291,1.9316,1.9324,1.9362,1.9363,1.9389,1.9436,1.9455,1.9471,1.9519,1.9519,1.9528,1.9549,1.9575,1.958,1.9585,1.9604,1.9611,1.9532,1.9532,1.9532,0,1.9202,1.9241,1.9247,1.9277,1.9293,1.9293,1.9324,1.9341,1.9373,1.9386,1.9377,1.9438,1.9456,1.9503,1.9515,1.9528,1.9538,1.9524,1.9579,1.9584,1.9588,1.9607,1.9613,1.9533,1.9533,1.9533,1.9533,0,1.9257,1.9284,1.9305,1.9336,1.9355,1.9385,1.9399,1.9417,1.9421,1.9433,1.9473,1.9494,1.9526,1.9538,1.9542,1.9588,1.9583,1.9576,1.9561,1.9596,1.9613,1.962,1.9534,1.9534,1.9534,1.9533,0,0,1.93,1.9335,1.9343,1.9358,1.9386,1.9408,1.944,1.947,1.9487,1.9511,1.9539,1.958,1.9575,1.9593,1.9599,1.9622,1.9661,1.9614,1.9614,1.9623,1.9716,1.9721,1.9729,1.9661,1.9662,1.9663,1.9714,0,1.9341,1.9395,1.9403,1.9451,1.9478,1.9479,1.9507,1.9528,1.9541,1.9567,1.9581,1.9611,1.9601,1.9613,1.9635,1.9652,1.968,1.9648,1.9689,1.9691,1.9683,1.9737,1.9742,1.9789,1.9721,1.9722,1.9723,0,1.9396,1.942,1.9471,1.9498,1.9509,1.9534,1.9564,1.9588,1.9614,1.9621,1.9643,1.9647,1.9682,1.9665,1.9715,1.9693,1.9711,1.9722,1.9724,1.9728,1.9709,1.9745,1.9804,1.9811,1.9733,1.9732,1.9731,0,1.9424,1.947,1.9506,1.9519,1.955,1.9568,1.9582,1.9607,1.9626,1.9653,1.9665,1.9697,1.9714,1.9739,1.9753,1.9739,1.9802,1.9786,1.9812,1.9811,1.9825,1.9824,1.9889,1.9835,1.9835,1.9835,1.9835,0,1.947,1.9501,1.9519,1.9542,1.9578,1.9588,1.9624,1.9639,1.9661,1.9688,1.9692,1.9718,1.9733,1.9762,1.9773,1.9814,1.9822,1.9831,1.9833,1.9831,1.983,1.9843,1.9841,1.9837,1.9836,1.9836,1.9835,0,1.9507,1.952,1.956,1.9587,1.9595,1.9621,1.9645,1.9668,1.9681,1.9716,1.9725,1.9745,1.978,1.9796,1.9839,1.9846,1.9893,1.9893,1.9884,1.9886,1.9911,1.9909,1.9987,1.9999,1.9936,1.9936,1.9937,0,1.9536,1.956,1.9589,1.9607,1.9622,1.9651,1.967,1.9682,1.9702,1.9735,1.9755,1.9789,1.9817,1.9873,1.9893,1.9927,1.9929,1.9954,1.9934,1.9931,1.9931,1.993,1.9933,1.9958,1.9958,1.9959,1.9959,0,1.9586,1.9591,1.9618,1.9648,1.9671,1.9695,1.9719,1.9734,1.975,1.9774,1.9808,1.983,1.9874,1.9909,1.9945,1.9962,1.9965,1.9965,1.9973,1.9971,1.9966,1.9971,1.9895,1.9963,1.9963,1.9963,1.9962,1.9962,1.962,1.9643,1.9667,1.9698,1.9717,1.974,1.9764,1.978,1.9809,1.9845,1.9851,1.9889,1.9917,1.9964,1.9983,2.0014,2.0009,2.002,2.0023,2.0026,2.0028,1.996,2.0021,2.0021,2.0021,2.002,2.002,0,1.9672,1.9688,1.9716,1.9749,1.9774,1.9773,1.98,1.9822,1.9854,1.9879,1.9907,1.9949,1.9984,2.0007,2.0043,2.0064,2.0066,2.0073,2.0072,2.0077,2.003,2.002,2.0071,2.0071,2.0071,2.0071,2.0071,2.0071,1.9701,1.974,1.9749,1.9798,1.9815,1.9851,1.9867,1.9889,1.9909,1.9955,1.9983,1.9998,2.0024,2.0062,2.0095,2.0101,2.0115,2.0123,2.0129,2.0085,2.008,2.0075,2.0066,2.0125,2.0125,2.0173,2.0174,2.0174]},{"header":{"parameterUnit":"m.s-1","parameterCategory":1,"la1":30.2991,"la2":30.254,"lo1":-89.0895,"lo2":-89.0444,"dy":0.0017,"dx":0.0017,"nx":28,"ny":28,"refTime":"2024-04-11T09:00:00:Z","depth":0,"parameterNumber":3,"parameterNumberName":"V-component_of_WINDS"},"data":[0,0,0,0,0,0,0,0,0,0,0,0,0,0,0,0,0,0,0,0,0,0,0,0,0,0,0,0,0,0,0,0,0,0,0,0,0,0,0,0,0,0,0,0,0,0,0,0,0,0,0,0,0,0,0,0,0,0,-2.8713,-2.8714,0,-2.8727,-2.8727,-2.8727,-2.8717,-2.8717,-2.8716,-2.8716,-2.8729,-2.873,-2.8731,0,0,0,0,0,0,0,0,0,0,0,0,0,-2.8676,-2.8677,-2.8713,-2.8714,-2.8714,-2.8727,-2.8727,-2.8727,-2.8717,-2.8717,-2.8716,-2.8715,-2.8729,-2.873,-2.8731,0,0,0,0,0,0,0,0,0,0,0,0,0,-2.8691,-2.8677,-2.8713,-2.871,-2.871,-2.8727,-2.8727,-2.8727,-2.8717,-2.8716,-2.8716,-2.8715,-2.8729,-2.873,-2.8731,-2.8752,0,0,-2.8734,-2.8735,0,0,0,0,0,0,0,0,-2.8691,-2.8693,-2.871,-2.871,-2.871,-2.872,-2.8719,-2.8735,-2.8717,-2.8714,-2.8716,-2.8715,-2.8726,-2.8728,-2.8732,-2.8752,-2.8753,-2.8735,-2.8735,-2.8736,-2.8736,0,0,0,0,0,0,0,-2.8689,-2.8692,-2.8719,-2.8711,-2.8711,-2.8707,-2.8709,-2.8722,-2.8724,-2.8715,-2.8714,-2.8716,-2.8726,-2.8731,-2.8732,-2.8753,-2.8734,-2.8736,-2.8736,-2.8737,-2.8788,-2.8789,0,0,0,0,0,0,-2.8689,-2.8691,-2.8718,-2.8719,-2.8699,-2.8709,-2.871,-2.8717,-2.8724,-2.8724,-2.8716,-2.8715,-2.8729,-2.8731,-2.8732,-2.8755,-2.8736,-2.8737,-2.8737,-2.8787,-2.8788,-2.8789,0,0,0,0,0,0,-2.8688,-2.8691,-2.8718,-2.8705,-2.8708,-2.871,-2.8718,-2.8718,-2.8722,-2.8725,-2.8725,-2.8721,-2.8729,-2.8731,-2.8746,-2.8756,-2.8737,-2.8738,-2.8786,-2.8787,-2.8788,-2.8802,0,0,0,0,0,0,-2.8687,-2.8691,-2.87,-2.8705,-2.8709,-2.8732,-2.8719,-2.8719,-2.8724,-2.8723,-2.8729,-2.873,-2.8728,-2.8745,-2.8747,-2.8757,-2.8739,-2.8786,-2.8787,-2.8788,-2.8801,-2.8804,-2.8806,0,0,0,0,0,-2.8686,-2.8704,-2.87,-2.8704,-2.872,-2.8733,-2.8735,-2.8733,-2.8725,-2.8733,-2.8735,-2.8729,-2.8754,-2.8746,-2.8749,-2.8759,-2.8785,-2.8787,-2.8788,-2.88,-2.8803,-2.8806,0,0,0,0,0,0,-2.87,-2.8705,-2.8701,-2.8721,-2.8726,-2.8731,-2.8741,-2.8737,-2.8745,-2.8743,-2.874,-2.8742,-2.8758,-2.876,-2.8751,-2.8778,-2.8768,-2.877,-2.8776,-2.8779,-2.8782,-2.878,-2.874,0,0,0,0,0,-2.8705,-2.8716,-2.8719,-2.8737,-2.874,-2.874,-2.8746,-2.8743,-2.8749,-2.8751,-2.8754,-2.8759,-2.8768,-2.8774,-2.8782,-2.8801,-2.8801,-2.8809,-2.8812,-2.8814,-2.8815,-2.8823,-2.8826,-2.8794,-2.8794,-2.8794,0,0,-2.8717,-2.8721,-2.8728,-2.874,-2.8744,-2.8754,-2.8742,-2.8754,-2.8761,-2.8753,-2.8767,-2.8769,-2.8775,-2.8791,-2.8799,-2.8794,-2.8824,-2.8816,-2.8817,-2.8818,-2.8825,-2.8828,-2.8831,-2.8795,-2.8794,-2.8794,0,0,-2.8743,-2.8747,-2.8761,-2.8765,-2.8771,-2.877,-2.8774,-2.8778,-2.8779,-2.8793,-2.8787,-2.8795,-2.881,-2.8814,-2.8818,-2.8842,-2.8836,-2.8844,-2.8857,-2.8865,-2.8867,-2.887,-2.8877,-2.8879,-2.8846,-2.8846,-2.8846,0,-2.8756,-2.8772,-2.8769,-2.878,-2.8785,-2.8778,-2.8791,-2.8795,-2.8803,-2.8806,-2.88,-2.8818,-2.8821,-2.8837,-2.8843,-2.8847,-2.8849,-2.8844,-2.8867,-2.887,-2.8872,-2.8878,-2.8881,-2.8847,-2.8847,-2.8847,-2.8847,0,-2.8787,-2.8797,-2.8808,-2.8815,-2.8821,-2.8833,-2.8831,-2.8837,-2.8834,-2.8834,-2.8847,-2.8851,-2.8858,-2.8862,-2.886,-2.8877,-2.8874,-2.8868,-2.8858,-2.8876,-2.8882,-2.8884,-2.8848,-2.8848,-2.8848,-2.8848,0,0,-2.8823,-2.8827,-2.8831,-2.8833,-2.8838,-2.8845,-2.8857,-2.8864,-2.8868,-2.8874,-2.8882,-2.8894,-2.8887,-2.8892,-2.8889,-2.8896,-2.8913,-2.8889,-2.8889,-2.8892,-2.893,-2.8934,-2.8937,-2.8909,-2.8909,-2.891,-2.8929,0,-2.8848,-2.8868,-2.8864,-2.8883,-2.8891,-2.8883,-2.8892,-2.8896,-2.8895,-2.8902,-2.8901,-2.8909,-2.8901,-2.8903,-2.891,-2.8909,-2.892,-2.8908,-2.8915,-2.8916,-2.8914,-2.8941,-2.8945,-2.8963,-2.8932,-2.8932,-2.8932,0,-2.888,-2.8886,-2.8905,-2.8906,-2.8909,-2.8918,-2.8923,-2.8929,-2.8932,-2.8931,-2.8935,-2.893,-2.8939,-2.8929,-2.8941,-2.8933,-2.8936,-2.8936,-2.8936,-2.8936,-2.8925,-2.894,-2.8969,-2.8972,-2.8936,-2.8936,-2.8936,0,-2.8903,-2.8915,-2.8927,-2.893,-2.8932,-2.8937,-2.8938,-2.894,-2.8944,-2.8948,-2.895,-2.8956,-2.8958,-2.8962,-2.8958,-2.8951,-2.897,-2.896,-2.8969,-2.8969,-2.8973,-2.8973,-2.9002,-2.8976,-2.8976,-2.8976,-2.8976,0,-2.8931,-2.8942,-2.8937,-2.8945,-2.8957,-2.8952,-2.8964,-2.8964,-2.8965,-2.8972,-2.8965,-2.8971,-2.8967,-2.8972,-2.8969,-2.8978,-2.898,-2.8979,-2.8978,-2.8979,-2.8979,-2.898,-2.8979,-2.8977,-2.8977,-2.8977,-2.8976,0,-2.8958,-2.8956,-2.8968,-2.8968,-2.8968,-2.8977,-2.8977,-2.8983,-2.8981,-2.8989,-2.8991,-2.8988,-2.8994,-2.899,-2.8997,-2.8994,-2.9006,-2.9004,-2.9005,-2.9004,-2.9013,-2.9011,-2.9043,-2.9046,-2.9019,-2.902,-2.902,0,-2.8976,-2.8985,-2.8985,-2.8988,-2.899,-2.8996,-2.8999,-2.8994,-2.8998,-2.9,-2.9006,-2.901,-2.9014,-2.9023,-2.9021,-2.9025,-2.9022,-2.9033,-2.9023,-2.9023,-2.9021,-2.902,-2.902,-2.9035,-2.9035,-2.9036,-2.9036,0,-2.9007,-2.9004,-2.901,-2.9013,-2.9017,-2.902,-2.9023,-2.9026,-2.9021,-2.9025,-2.903,-2.9033,-2.9038,-2.9042,-2.9045,-2.9045,-2.9039,-2.9039,-2.9041,-2.9042,-2.9042,-2.904,-2.901,-2.9038,-2.9038,-2.9038,-2.9038,-2.9038,-2.9029,-2.9035,-2.9036,-2.9041,-2.9042,-2.9044,-2.9049,-2.9047,-2.9052,-2.9055,-2.9052,-2.9058,-2.9058,-2.9061,-2.9061,-2.9065,-2.9061,-2.9064,-2.9065,-2.9065,-2.9066,-2.9041,-2.9066,-2.9066,-2.9066,-2.9065,-2.9065,0,-2.9059,-2.9058,-2.9063,-2.9065,-2.9069,-2.9063,-2.9064,-2.9067,-2.9073,-2.9073,-2.9076,-2.9081,-2.9085,-2.9082,-2.9085,-2.9089,-2.9086,-2.9089,-2.9089,-2.9088,-2.907,-2.9068,-2.9091,-2.9091,-2.9091,-2.9091,-2.9091,-2.9091,-2.9074,-2.9084,-2.9081,-2.909,-2.9089,-2.9095,-2.9096,-2.9097,-2.9097,-2.9103,-2.9106,-2.9104,-2.9103,-2.9105,-2.9107,-2.9106,-2.9107,-2.9111,-2.9109,-2.9093,-2.909,-2.9088,-2.9085,-2.9112,-2.9112,-2.9127,-2.9127,-2.9127]}]]